Location: Gad�tanya
(48.0500°N, 20.8500°E)
Time: 10:51:59
(UTC+00:00)

Landsat 7 - Pass Details

Date: 05 July 2020
Orbit: 701 x 703 km, 98.1° (Epoch: 15 August)

Event Time Altitude Azimuth Distance (km) Brightness Sun altitude
Exits shadow 19:42:54 - 168° (SSE) 2,374 6.0 -8.8°
Reaches altitude 10° 19:43:25 10° 168° (SSE) 2,166 5.8 -8.8°
Maximum altitude 19:48:10 82° 257° (WSW) 717 3.9 -9.3°
Drops below altitude 10° 19:52:58 10° 345° (NNW) 2,182 7.6 -9.8°
Sets 19:55:14 0° 346° (NNW) 3,105 8.5 -10.1°
